[[{"header":{"parameterUnit":"m.s-1","parameterCategory":1,"la1":30.2992,"la2":30.254,"lo1":-89.0895,"lo2":-89.0443,"dy":0.0025,"dx":0.0025,"nx":19,"ny":19,"refTime":"2026-04-23T09:00:00:Z","depth":0,"parameterNumber":2,"parameterNumberName":"U-component_of_WINDS"},"data":[0,0,0,-2.2651,-2.2652,-2.2691,-2.2692,-2.2748,-2.2749,0,0,0,0,0,0,0,0,0,0,0,-2.2643,-2.2643,-2.2651,-2.2652,-2.2691,-2.2692,-2.2748,-2.2749,0,0,0,0,0,0,0,0,0,0,0,-2.2642,-2.2643,-2.2644,-2.2652,-2.2691,-2.2692,-2.2748,-2.2716,0,0,0,0,0,0,0,0,0,0,-2.2677,-2.2672,-2.2643,-2.2644,-2.2652,-2.2691,-2.2692,-2.2715,-2.2718,-2.2733,0,-2.2746,0,-2.2749,-2.2753,-2.2753,0,0,0,-2.265,-2.2669,-2.2677,-2.2644,-2.2653,-2.2691,-2.2673,-2.2717,-2.2721,-2.2738,-2.2747,-2.2749,-2.2749,-2.2753,-2.2754,-2.2845,-2.2846,0,0,-2.2648,-2.2652,-2.2674,-2.268,-2.2673,-2.2672,-2.2674,-2.2719,-2.273,-2.2747,-2.275,-2.275,-2.2754,-2.2754,-2.2845,-2.2845,0,0,0,-2.2643,-2.265,-2.2657,-2.2677,-2.2684,-2.2673,-2.2676,-2.2728,-2.2729,-2.2751,-2.2751,-2.2754,-2.2755,-2.2844,-2.2845,-2.2874,0,0,0,-2.2641,-2.2647,-2.2656,-2.2659,-2.2683,-2.2706,-2.2684,-2.2726,-2.2731,-2.2751,-2.2754,-2.2756,-2.2843,-2.2844,-2.2872,-2.2887,0,0,0,-2.2639,-2.2647,-2.2654,-2.2659,-2.2676,-2.2705,-2.271,-2.2727,-2.2731,-2.2753,-2.2756,-2.2843,-2.2844,-2.287,-2.2884,-2.2912,0,0,0,-2.2637,-2.268,-2.2654,-2.2702,-2.2675,-2.2723,-2.2709,-2.2745,-2.2767,-2.2754,-2.2843,-2.2845,-2.287,-2.2883,-2.291,-2.2936,-2.2947,0,0,-2.2693,-2.2687,-2.2714,-2.2693,-2.2746,-2.2717,-2.2775,-2.2792,-2.2791,-2.2827,-2.2829,-2.2873,-2.2884,-2.2912,-2.301,-2.3018,0,0,0,-2.2733,-2.2753,-2.2766,-2.2788,-2.2801,-2.2815,-2.2822,-2.2829,-2.2859,-2.281,-2.2891,-2.2897,-2.2913,-2.2925,-2.2933,-2.2946,-2.2851,-2.285,-2.285,-2.2817,-2.2813,-2.2859,-2.286,-2.288,-2.2888,-2.2905,-2.2915,-2.2905,-2.2924,-2.2934,-2.2994,-2.3008,-2.3014,-2.3028,-2.2948,-2.2948,-2.2949,-2.2949,-2.2898,-2.2925,-2.2911,-2.295,-2.2946,-2.2979,-2.2988,-2.298,-2.3011,-2.2986,-2.3,-2.2973,-2.3024,-2.3036,-2.2951,-2.295,-2.295,-2.295,-2.295,-2.2952,-2.2964,-2.2971,-2.3001,-2.3025,-2.3025,-2.3055,-2.305,-2.3046,-2.306,-2.3071,-2.307,-2.3068,-2.3066,-2.3066,-2.3066,-2.3066,-2.3066,-2.3066,-2.3005,-2.3012,-2.3037,-2.3056,-2.3069,-2.3085,-2.3094,-2.3107,-2.312,-2.3114,-2.3114,-2.3102,-2.303,-2.3011,-2.307,-2.3069,-2.3069,-2.3068,-2.3068,-2.3088,-2.3068,-2.3107,-2.312,-2.3141,-2.3165,-2.3159,-2.3186,-2.3196,-2.3211,-2.3196,-2.3144,-2.3137,-2.3131,-2.3115,-2.3197,-2.3197,-2.3197,-2.3197,-2.3133,-2.3129,-2.3168,-2.3189,-2.3209,-2.3207,-2.3252,-2.3259,-2.3264,-2.327,-2.3257,-2.3237,-2.3231,-2.3228,-2.3219,-2.3205,-2.3308,-2.3308,-2.3308,-2.3183,-2.3181,-2.322,-2.3223,-2.3239,-2.3254,-2.3295,-2.3321,-2.3322,-2.3312,-2.3274,-2.327,-2.3236,-2.3226,-2.3215,-2.3202,-2.3175,0,0]},{"header":{"parameterUnit":"m.s-1","parameterCategory":1,"la1":30.2992,"la2":30.254,"lo1":-89.0895,"lo2":-89.0443,"dy":0.0025,"dx":0.0025,"nx":19,"ny":19,"refTime":"2026-04-23T09:00:00:Z","depth":0,"parameterNumber":3,"parameterNumberName":"V-component_of_WINDS"},"data":[0,0,0,5.2005,5.2004,5.1992,5.1991,5.1993,5.1993,0,0,0,0,0,0,0,0,0,0,0,5.2019,5.2019,5.2005,5.2004,5.1992,5.1991,5.1993,5.1993,0,0,0,0,0,0,0,0,0,0,0,5.2018,5.2019,5.2019,5.2004,5.1992,5.1991,5.1993,5.1996,0,0,0,0,0,0,0,0,0,0,5.2006,5.2029,5.2019,5.2019,5.2004,5.1992,5.1991,5.1996,5.1996,5.2006,0,5.2018,0,5.2006,5.1994,5.1994,0,0,0,5.1997,5.2029,5.2016,5.2019,5.2004,5.1992,5.1995,5.1996,5.1996,5.2006,5.2017,5.2017,5.2006,5.1994,5.1994,5.2079,5.208,0,0,5.1998,5.2022,5.2016,5.2017,5.2019,5.1996,5.1995,5.1996,5.201,5.2017,5.2017,5.2006,5.1995,5.1995,5.2078,5.2079,0,0,0,5.2005,5.2023,5.2009,5.2017,5.2013,5.1996,5.1995,5.2009,5.2003,5.2017,5.2006,5.1995,5.1995,5.2077,5.2078,5.214,0,0,0,5.2005,5.2027,5.201,5.2025,5.2014,5.2011,5.2009,5.2003,5.2002,5.2006,5.1995,5.1995,5.2076,5.2078,5.2136,5.2164,0,0,0,5.2016,5.2028,5.203,5.2026,5.2022,5.201,5.2004,5.2002,5.1996,5.1994,5.1995,5.2076,5.2077,5.2133,5.2159,5.2194,0,0,0,5.2035,5.2084,5.2031,5.2082,5.2022,5.2048,5.2004,5.2022,5.2028,5.1995,5.2076,5.2078,5.2132,5.2156,5.2191,5.2229,5.2246,0,0,5.211,5.2094,5.2121,5.2074,5.2116,5.2048,5.21,5.2082,5.2059,5.2074,5.2075,5.2137,5.2159,5.2194,5.2337,5.2351,0,0,0,5.2154,5.2174,5.218,5.2187,5.2174,5.2167,5.2138,5.2132,5.2143,5.2072,5.2158,5.2171,5.219,5.2207,5.2219,5.2235,5.2087,5.2087,5.2087,5.2295,5.2264,5.2308,5.2276,5.2284,5.2255,5.2258,5.2245,5.2211,5.2232,5.2236,5.2327,5.2347,5.2356,5.2373,5.2253,5.2253,5.2253,5.2254,5.2403,5.2427,5.2382,5.2409,5.2376,5.2398,5.2373,5.2349,5.2365,5.2321,5.2336,5.2291,5.2373,5.2386,5.2258,5.2257,5.2257,5.2256,5.2256,5.2492,5.2499,5.249,5.2498,5.2507,5.2473,5.2491,5.2461,5.2432,5.2448,5.2449,5.2448,5.2444,5.2451,5.2451,5.2451,5.2451,5.2452,5.2452,5.2589,5.2577,5.2596,5.2588,5.2589,5.2587,5.2559,5.256,5.2552,5.2529,5.2528,5.2494,5.2386,5.236,5.2457,5.2456,5.2455,5.2455,5.2454,5.271,5.2678,5.2707,5.2709,5.2698,5.271,5.2671,5.2674,5.267,5.2681,5.2642,5.2568,5.2549,5.2539,5.2517,5.2648,5.2648,5.2648,5.2648,5.2786,5.2774,5.2797,5.2801,5.2802,5.277,5.2806,5.2785,5.2759,5.2755,5.2732,5.27,5.2692,5.2678,5.2665,5.2644,5.2804,5.2804,5.2805,5.286,5.2846,5.2882,5.2855,5.2845,5.2837,5.287,5.2877,5.2841,5.281,5.2751,5.2745,5.2694,5.2679,5.2647,5.2628,5.2589,0,0]}]]